owner,sensor,date,latitude,longitude,vertical_datum,sea_water_temperature,qcFlag 
ENP,ioos.station.NOAA.NDBC:WRBF1:1,2017-10-27T18:00:00Z,25.0720,-80.7350,1.0,23.35,2 
ENP,ioos.station.NOAA.NDBC:WRBF1:1,2017-10-27T19:00:00Z,25.0720,-80.7350,1.0,24.43,2 
ENP,ioos.station.NOAA.NDBC:WRBF1:1,2017-10-27T20:00:00Z,25.0720,-80.7350,1.0,24.97,2 
ENP,ioos.station.NOAA.NDBC:WRBF1:1,2017-10-27T21:00:00Z,25.0720,-80.7350,1.0,25.06,2 
ENP,ioos.station.NOAA.NDBC:WRBF1:1,2017-10-27T22:00:00Z,25.0720,-80.7350,1.0,25.39,2 
ENP,ioos.station.NOAA.NDBC:WRBF1:1,2017-10-27T23:00:00Z,25.0720,-80.7350,1.0,25.28,2 
ENP,ioos.station.NOAA.NDBC:WRBF1:1,2017-10-28T00:00:00Z,25.0720,-80.7350,1.0,25.09,2 
ENP,ioos.station.NOAA.NDBC:WRBF1:1,2017-10-28T03:00:00Z,25.0720,-80.7350,1.0,24.51,2 
ENP,ioos.station.NOAA.NDBC:WRBF1:1,2017-10-28T05:00:00Z,25.0720,-80.7350,1.0,24.12,2 
ENP,ioos.station.NOAA.NDBC:WRBF1:1,2017-10-28T06:00:00Z,25.0720,-80.7350,1.0,24.02,2 
ENP,ioos.station.NOAA.NDBC:WRBF1:1,2017-10-28T07:00:00Z,25.0720,-80.7350,1.0,23.93,2 
ENP,ioos.station.NOAA.NDBC:WRBF1:1,2017-10-28T08:00:00Z,25.0720,-80.7350,1.0,23.81,2 
ENP,ioos.station.NOAA.NDBC:WRBF1:1,2017-10-28T10:00:00Z,25.0720,-80.7350,1.0,23.68,2 
ENP,ioos.station.NOAA.NDBC:WRBF1:1,2017-10-28T11:00:00Z,25.0720,-80.7350,1.0,23.63,2 
ENP,ioos.station.NOAA.NDBC:WRBF1:1,2017-10-28T12:00:00Z,25.0720,-80.7350,1.0,23.51,2 
ENP,ioos.station.NOAA.NDBC:WRBF1:1,2017-10-28T13:00:00Z,25.0720,-80.7350,1.0,23.48,2 
ENP,ioos.station.NOAA.NDBC:WRBF1:1,2017-10-28T14:00:00Z,25.0720,-80.7350,1.0,23.54,2 
ENP,ioos.station.NOAA.NDBC:WRBF1:1,2017-10-28T15:00:00Z,25.0720,-80.7350,1.0,23.62,2 
ENP,ioos.station.NOAA.NDBC:WRBF1:1,2017-10-28T16:00:00Z,25.0720,-80.7350,1.0,23.73,2 
ENP,ioos.station.NOAA.NDBC:WRBF1:1,2017-10-28T17:00:00Z,25.0720,-80.7350,1.0,23.8,2 
ENP,ioos.station.NOAA.NDBC:WRBF1:1,2017-10-28T18:00:00Z,25.0720,-80.7350,1.0,23.82,2 
ENP,ioos.station.NOAA.NDBC:WRBF1:1,2017-10-28T19:00:00Z,25.0720,-80.7350,1.0,23.99,2 
ENP,ioos.station.NOAA.NDBC:WRBF1:1,2017-10-28T20:00:00Z,25.0720,-80.7350,1.0,24.07,2 
ENP,ioos.station.NOAA.NDBC:WRBF1:1,2017-10-28T21:00:00Z,25.0720,-80.7350,1.0,24.1,2 
ENP,ioos.station.NOAA.NDBC:WRBF1:1,2017-10-28T22:00:00Z,25.0720,-80.7350,1.0,24.18,2 
ENP,ioos.station.NOAA.NDBC:WRBF1:1,2017-10-28T23:00:00Z,25.0720,-80.7350,1.0,24.2,2 
ENP,ioos.station.NOAA.NDBC:WRBF1:1,2017-10-29T00:00:00Z,25.0720,-80.7350,1.0,24.16,2 
ENP,ioos.station.NOAA.NDBC:WRBF1:1,2017-10-29T03:00:00Z,25.0720,-80.7350,1.0,23.99,2 
ENP,ioos.station.NOAA.NDBC:WRBF1:1,2017-10-29T06:00:00Z,25.0720,-80.7350,1.0,24.0,2 
ENP,ioos.station.NOAA.NDBC:WRBF1:1,2017-10-29T08:00:00Z,25.0720,-80.7350,1.0,24.05,2 
ENP,ioos.station.NOAA.NDBC:WRBF1:1,2017-10-29T11:00:00Z,25.0720,-80.7350,1.0,23.84,2 
ENP,ioos.station.NOAA.NDBC:WRBF1:1,2017-10-29T12:00:00Z,25.0720,-80.7350,1.0,23.62,2 
ENP,ioos.station.NOAA.NDBC:WRBF1:1,2017-10-29T13:00:00Z,25.0720,-80.7350,1.0,23.57,2 
ENP,ioos.station.NOAA.NDBC:WRBF1:1,2017-10-29T14:00:00Z,25.0720,-80.7350,1.0,23.62,2 
ENP,ioos.station.NOAA.NDBC:WRBF1:1,2017-10-29T15:00:00Z,25.0720,-80.7350,1.0,23.67,2 
ENP,ioos.station.NOAA.NDBC:WRBF1:1,2017-10-29T16:00:00Z,25.0720,-80.7350,1.0,23.92,2 
ENP,ioos.station.NOAA.NDBC:WRBF1:1,2017-10-29T17:00:00Z,25.0720,-80.7350,1.0,23.99,2 
ENP,ioos.station.NOAA.NDBC:WRBF1:1,2017-10-29T18:00:00Z,25.0720,-80.7350,1.0,24.35,2 
ENP,ioos.station.NOAA.NDBC:WRBF1:1,2017-10-29T19:00:00Z,25.0720,-80.7350,1.0,24.63,2 
ENP,ioos.station.NOAA.NDBC:WRBF1:1,2017-10-29T20:00:00Z,25.0720,-80.7350,1.0,24.67,2 
ENP,ioos.station.NOAA.NDBC:WRBF1:1,2017-10-29T21:00:00Z,25.0720,-80.7350,1.0,24.4,2 
ENP,ioos.station.NOAA.NDBC:WRBF1:1,2017-10-29T22:00:00Z,25.0720,-80.7350,1.0,24.05,2 
ENP,ioos.station.NOAA.NDBC:WRBF1:1,2017-10-29T23:00:00Z,25.0720,-80.7350,1.0,23.54,2 
ENP,ioos.station.NOAA.NDBC:WRBF1:1,2017-10-30T00:00:00Z,25.0720,-80.7350,1.0,23.02,2 
ENP,ioos.station.NOAA.NDBC:WRBF1:1,2017-10-30T02:00:00Z,25.0720,-80.7350,1.0,22.47,2 
ENP,ioos.station.NOAA.NDBC:WRBF1:1,2017-10-30T03:00:00Z,25.0720,-80.7350,1.0,22.17,2 
ENP,ioos.station.NOAA.NDBC:WRBF1:1,2017-10-30T05:00:00Z,25.0720,-80.7350,1.0,21.42,2 
ENP,ioos.station.NOAA.NDBC:WRBF1:1,2017-10-30T06:00:00Z,25.0720,-80.7350,1.0,21.2,2 
ENP,ioos.station.NOAA.NDBC:WRBF1:1,2017-10-30T07:00:00Z,25.0720,-80.7350,1.0,21.04,2 
ENP,ioos.station.NOAA.NDBC:WRBF1:1,2017-10-30T08:00:00Z,25.0720,-80.7350,1.0,20.9,2 
ENP,ioos.station.NOAA.NDBC:WRBF1:1,2017-10-30T10:00:00Z,25.0720,-80.7350,1.0,20.44,2 
ENP,ioos.station.NOAA.NDBC:WRBF1:1,2017-10-30T12:00:00Z,25.0720,-80.7350,1.0,19.26,2 
ENP,ioos.station.NOAA.NDBC:WRBF1:1,2017-10-30T13:00:00Z,25.0720,-80.7350,1.0,18.85,2 
ENP,ioos.station.NOAA.NDBC:WRBF1:1,2017-10-30T14:00:00Z,25.0720,-80.7350,1.0,18.67,2 
ENP,ioos.station.NOAA.NDBC:WRBF1:1,2017-10-30T15:00:00Z,25.0720,-80.7350,1.0,18.88,2 
ENP,ioos.station.NOAA.NDBC:WRBF1:1,2017-10-30T16:00:00Z,25.0720,-80.7350,1.0,19.45,2 
ENP,ioos.station.NOAA.NDBC:WRBF1:1,2017-10-30T17:00:00Z,25.0720,-80.7350,1.0,20.42,2 
ENP,ioos.station.NOAA.NDBC:WRBF1:1,2017-10-30T18:00:00Z,25.0720,-80.7350,1.0,21.2,2 
ENP,ioos.station.NOAA.NDBC:WRBF1:1,2017-10-30T19:00:00Z,25.0720,-80.7350,1.0,21.67,2 
ENP,ioos.station.NOAA.NDBC:WRBF1:1,2017-10-30T20:00:00Z,25.0720,-80.7350,1.0,21.78,2 
ENP,ioos.station.NOAA.NDBC:WRBF1:1,2017-10-30T21:00:00Z,25.0720,-80.7350,1.0,21.74,2 
ENP,ioos.station.NOAA.NDBC:WRBF1:1,2017-10-30T22:00:00Z,25.0720,-80.7350,1.0,21.71,2 
ENP,ioos.station.NOAA.NDBC:WRBF1:1,2017-10-30T23:00:00Z,25.0720,-80.7350,1.0,21.29,2 
ENP,ioos.station.NOAA.NDBC:WRBF1:1,2017-10-31T00:00:00Z,25.0720,-80.7350,1.0,20.89,2 
ENP,ioos.station.NOAA.NDBC:WRBF1:1,2017-10-31T02:00:00Z,25.0720,-80.7350,1.0,19.97,2 
ENP,ioos.station.NOAA.NDBC:WRBF1:1,2017-10-31T03:00:00Z,25.0720,-80.7350,1.0,19.48,2 
ENP,ioos.station.NOAA.NDBC:WRBF1:1,2017-10-31T05:00:00Z,25.0720,-80.7350,1.0,18.76,2 
ENP,ioos.station.NOAA.NDBC:WRBF1:1,2017-10-31T06:00:00Z,25.0720,-80.7350,1.0,18.6,2 
ENP,ioos.station.NOAA.NDBC:WRBF1:1,2017-10-31T07:00:00Z,25.0720,-80.7350,1.0,18.47,2 
ENP,ioos.station.NOAA.NDBC:WRBF1:1,2017-10-31T08:00:00Z,25.0720,-80.7350,1.0,18.46,2 
ENP,ioos.station.NOAA.NDBC:WRBF1:1,2017-10-31T11:00:00Z,25.0720,-80.7350,1.0,18.05,2 
ENP,ioos.station.NOAA.NDBC:WRBF1:1,2017-10-31T12:00:00Z,25.0720,-80.7350,1.0,17.53,2 
ENP,ioos.station.NOAA.NDBC:WRBF1:1,2017-10-31T13:00:00Z,25.0720,-80.7350,1.0,17.3,2 
ENP,ioos.station.NOAA.NDBC:WRBF1:1,2017-10-31T14:00:00Z,25.0720,-80.7350,1.0,17.37,2 
ENP,ioos.station.NOAA.NDBC:WRBF1:1,2017-10-31T15:00:00Z,25.0720,-80.7350,1.0,17.83,2 
ENP,ioos.station.NOAA.NDBC:WRBF1:1,2017-10-31T16:00:00Z,25.0720,-80.7350,1.0,18.89,2 
ENP,ioos.station.NOAA.NDBC:WRBF1:1,2017-10-31T17:00:00Z,25.0720,-80.7350,1.0,19.82,2 
ENP,ioos.station.NOAA.NDBC:WRBF1:1,2017-10-31T18:00:00Z,25.0720,-80.7350,1.0,20.63,2 
ENP,ioos.station.NOAA.NDBC:WRBF1:1,2017-10-31T19:00:00Z,25.0720,-80.7350,1.0,21.43,2 
ENP,ioos.station.NOAA.NDBC:WRBF1:1,2017-10-31T20:00:00Z,25.0720,-80.7350,1.0,22.44,2 
ENP,ioos.station.NOAA.NDBC:WRBF1:1,2017-10-31T21:00:00Z,25.0720,-80.7350,1.0,22.56,2 
ENP,ioos.station.NOAA.NDBC:WRBF1:1,2017-10-31T22:00:00Z,25.0720,-80.7350,1.0,22.28,2 
ENP,ioos.station.NOAA.NDBC:WRBF1:1,2017-10-31T23:00:00Z,25.0720,-80.7350,1.0,22.48,2 
 
DISCLAIMER: The Gulf of Mexico Coastal and Ocean Observing (GCOOS) Data Portal aggregates data from the regional data providers for the convenience of all data users. Data published on this website should not be used for navigation or certain other uses as we cannot guarantee data accuracy or availability. The data and delivery services are provided 'as is' without warranty of any kind. Data Source: Gulf of Mexico Coastal Ocean Observing System Data Portal (http://data.gcoos.org/) 
